Flag for Germany Weather past 2 weeks in Coburg, Bavaria, Germany

Now
45 °F

Fog.


Feels Like: 45 °F
Forecast: 40 / 56 °F
Wind: 1 mph from Southeast

Location: Bamberg

Current Time: Oct 26, 2014 at 12:58:32 AM

Latest Report: Oct 26, 2014 at 12:00 AM


Visibility: 3 mi

Pressure: 30.28 "Hg

Humidity: 99%

Dew point: 45 °F

Location of CoburgLocation

Historic Weather in Coburg — Graph

°F

Coburg temperature yesterday

Maximum temperature yesterday: 51 °F (at 3:00 PM)
Minimum temperature yesterday: 35 °F (at 4:00 AM)
Average temperature yesterday: 43 °F

Past Weeks' High & Low Weather Summary

 TemperatureHumidityPressure
High72 °F (Oct 19, 5:00 PM)100% (Oct 10, 11:00 PM)30.29 "Hg (Oct 10, 11:00 PM)
Low35 °F (Oct 25, 4:00 AM)57% (Oct 24, 4:00 PM)29.58 "Hg (Oct 21, 8:00 PM)
Average53 °F92%29.99 "Hg
* Reported Oct 10 11:00 PM — Oct 25 11:00 PM, Coburg, Weather by CustomWeather, © 2014

Note: Actual official high and low records may vary slightly from our data, if they occured in-between our weather recording intervals... More about our weather records

Advertising

Coburg weather history for previous 24 hours

 ConditionsComfort  
Time TempWeatherWind HumidityBarometerVisibility
11:00 PM
Oct 25
45 °FFog.1 mph100%30.27 "Hg4 mi
10:00 PM45 °FFog.1 mph98%30.27 "Hg3 mi
9:00 PM47 °FOvercast.2 mph93%30.25 "Hg5 mi
8:00 PM48 °FOvercast.2 mph91%30.24 "Hg6 mi
7:00 PM49 °FOvercast.2 mph91%30.23 "Hg6 mi
6:00 PM49 °FOvercast.2 mph89%30.21 "Hg9 mi
5:00 PM49 °FOvercast.2 mph90%30.20 "Hg9 mi
4:00 PM51 °FOvercast.3 mph82%30.18 "Hg11 mi
3:00 PM51 °FDrizzle. Overcast.2 mph82%30.17 "Hg9 mi
2:00 PM51 °FOvercast.2 mph82%30.17 "Hg9 mi
1:00 PM50 °FOvercast.3 mph85%30.19 "Hg8 mi
12:00 PM48 °FOvercast.3 mph89%30.19 "Hg7 mi
11:00 AM48 °FOvercast.2 mph97%30.18 "Hg6 mi
10:00 AM43 °FFog.1 mph100%30.18 "Hg3 mi
9:00 AM41 °FFog.1 mph100%30.18 "Hg3 mi
8:00 AM39 °FFog.1 mph100%30.17 "Hg3 mi
7:00 AM37 °FFog.1 mph100%30.17 "Hg2 mi
6:00 AM36 °FFog.1 mph100%30.17 "Hg4 mi
5:00 AM35 °FFog.1 mph100%30.18 "Hg2 mi
4:00 AM35 °FFog.1 mph100%30.18 "Hg2 mi
3:00 AM36 °FFog.1 mph100%30.19 "Hg2 mi
2:00 AM36 °FFog.1 mph100%30.19 "Hg2 mi
1:00 AM37 °FFog.No wind100%30.19 "Hg3 mi
12:00 AM35 °FOvercast.No wind100%30.20 "Hg3 mi
Weather by CustomWeather, © 2014

See weather overviewHow to use our weather pages